MGGTMSLP

Guest
Details From MGGT - La Aurora
To MSLP - El Salvador Intl
Flight Number -
Tags generated
Created
Modified
Stats Distance 110 nm / 204 km
Max Altitude 11,800 ft / 3,597 m
Waypoints 4
Social Downloads 4
Likes 0
Share VATSIM

Download

Looking for another format? Having issues loading an existing format? Contact us
Advertisement - Login to hide

Notes

Basic altitude profile: - Ascent Rate: 2500ft/min - Ascent Speed: 250kts - Cruise Altitude: 35000ft - Cruise Speed: 420kts - Descent Rate: 1500ft/min - Descent Speed: 250kts Options: - Use NATs: yes - Use PACOTS: yes - Use low airways: yes - Use high airways: yes

Route

MGGT PINOS G436 OTAMI MSLP

ID Type Via Altitude Latitude Longitude Leg Dist Tot Dist Heading (true) Name
O MGGT APT - 0 ft / 0 m 14.58327˚ -90.52747˚ - 0 nm - La Aurora
PINOS FIX - 8,900 ft / 2,713 m 14.31083˚ -90.20111˚ 25 nm 25 nm 131° / 131° -
OTAMI FIX G436 (AWY-LO) 11,800 ft / 3,597 m 14.03778˚ -89.87667˚ 25 nm 50 nm 131° / 131° -
O MSLP APT - 0 ft / 0 m 13.44567˚ -89.05174˚ 59 nm 109 nm 126° / 127° El Salvador Intl

Altitude Profile

Advertisement - Login to hide

MGGT

Details ICAO MGGT (GUA)
Name La Aurora
Region Guatemala
Timezone America/Guatemala (UTC-6.0)
Stats Elevation 4,952 ft / 1,509 m (AMSL)
Location 14.583272° -90.527473°
Runways 1
Magnetic Variation 1.071° E

METAR

MGGT 121800Z 36012KT CAVOK 18/11 Q1028 A3036 BKN200 VOL. DE FUEGO EN ACTIVIDAD

Decode

TAF

TAF MGGT 121100Z 1212/1312 36014KT CAVOK TX19/1220Z TN08/1212Z TEMPO 1212/1216 SCT016 BECMG 1216/1218 05014KT FEW018 BECMG 1300/1302 SCT016

Decode

Departure Runways

ID Width Length Bearing (true) Bearing (mag) Surface Threshold Offset Overrun Length
01 196 ft / 60 m 9,841 ft / 3,000 m 17.29° 16.22° Asphalt 0 ft / 0 m 0 ft / 0 m
19 196 ft / 60 m 9,841 ft / 3,000 m 197.29° 196.22° Asphalt 722 ft / 220 m 0 ft / 0 m

MSLP

Details ICAO MSLP (SAL)
Name El Salvador Intl
Region El Salvador
Timezone America/El_Salvador (UTC-6.0)
Stats Elevation 101 ft / 31 m (AMSL)
Location 13.445666° -89.051739°
Runways 2
Magnetic Variation 0.452° E

METAR

MSLP 121750Z 02015G25KT CAVOK 31/14 Q1013 A2992 NOSIG

Decode

TAF

Not found

Destination Runways

ID Width Length Bearing (true) Bearing (mag) Surface Threshold Offset Overrun Length
07 148 ft / 45 m 10,507 ft / 3,202 m 69.86° 69.41° Asphalt 0 ft / 0 m 200 ft / 61 m
18 75 ft / 23 m 2,639 ft / 804 m 180.00° 179.55° Asphalt 0 ft / 0 m 120 ft / 37 m
25 148 ft / 45 m 10,507 ft / 3,202 m 249.87° 249.42° Asphalt 0 ft / 0 m 200 ft / 61 m
36 75 ft / 23 m 2,639 ft / 804 m 0.00° 359.55° Asphalt 0 ft / 0 m 120 ft / 37 m

Approach Navaids

Runway Type Ident Frequency Range Bearing (true) Bearing (mag) Slope Elevation
07 Localiser CUS 110.30 MHz 18 nm / 33 km 69.76° 69.31° - 71 ft / 22 m (AMSL)
07 Glidescope CUS 110.30 MHz 10 nm / 19 km 69.87° 69.41° 2.50° 78 ft / 24 m (AMSL)

Popular Alternatives